When you browse on this site, cookies collect data to enhance your experience and personalize the content and advertising you see.
Visit our Privacy Policy to learn more. By continuing to use the site, you agree to this use of cookies and data.
  • En España
  • Lista de países
  • Para 7 días
  • Temperatura del agua
  • El tiempo en el mapa
  • Informadores
  • user-avatar
    Iniciar sesión

    Tiempo cada hora Sankt Pölten

    Hoy, 1 Abril, Miércoles

    Tiempo Temperatura Precipitaciones Viento Presión Humedad
    00:00 -2°C° 0 mm 0 mps 743 mmHg 78%
    01:00 -2°C° 0 mm 0 mps 743 mmHg 76%
    02:00 -2°C° 0 mm 0 mps 742 mmHg 76%
    03:00 -3°C° 0 mm 0 mps 742 mmHg 76%
    04:00 -3°C° 0 mm 0 mps 741 mmHg 77%
    05:00 -2°C° 0 mm 0 mps 741 mmHg 73%
    06:00 -1°C° 0 mm 0 mps 741 mmHg 69%
    07:00 0°C° 0 mm 0 mps 741 mmHg 66%
    08:00 +2°C° 0 mm 0 mps 741 mmHg 56%
    09:00 +5°C° 0 mm 1 mps 741 mmHg 46%
    10:00 +6°C° 0 mm 1 mps 740 mmHg 37%
    11:00 +8°C° 0 mm 1 mps 740 mmHg 34%
    12:00 +8°C° 0 mm 2 mps 739 mmHg 32%
    13:00 +9°C° 0 mm 2 mps 739 mmHg 30%
    14:00 +9°C° 0 mm 2 mps 738 mmHg 32%
    15:00 +8°C° 0 mm 2 mps 737 mmHg 35%
    16:00 +8°C° 0 mm 2 mps 736 mmHg 37%
    17:00 +6°C° 0 mm 2 mps 736 mmHg 46%
    18:00 +4°C° 0 mm 1 mps 736 mmHg 54%
    19:00 +2°C° 0 mm 1 mps 736 mmHg 62%
    20:00 +2°C° 0 mm 1 mps 736 mmHg 63%
    21:00 +1°C° 0 mm 1 mps 736 mmHg 63%
    22:00 +1°C° 0 mm 1 mps 737 mmHg 64%
    23:00 +1°C° 0 mm 1 mps 736 mmHg 63%

    Mañana, 2 Abril, Jueves

    Tiempo Temperatura Precipitaciones Viento Presión Humedad
    00:00 0°C° 0 mm 1 mps 736 mmHg 62%
    01:00 0°C° 0 mm 1 mps 736 mmHg 61%
    02:00 0°C° 0 mm 1 mps 736 mmHg 61%
    03:00 0°C° 0 mm 1 mps 735 mmHg 60%
    04:00 0°C° 0 mm 1 mps 735 mmHg 59%
    05:00 +1°C° 0 mm 1 mps 735 mmHg 56%
    06:00 +2°C° 0 mm 1 mps 735 mmHg 53%
    07:00 +2°C° 0 mm 0 mps 735 mmHg 50%
    08:00 +6°C° 0 mm 1 mps 735 mmHg 46%
    09:00 +8°C° 0 mm 1 mps 735 mmHg 41%
    10:00 +10°C° 0 mm 1 mps 735 mmHg 37%
    11:00 +11°C° 0 mm 1 mps 734 mmHg 37%
    12:00 +12°C° 0 mm 1 mps 734 mmHg 36%
    13:00 +13°C° 0 mm 1 mps 733 mmHg 35%
    14:00 +13°C° 0 mm 1 mps 733 mmHg 36%
    15:00 +13°C° 0 mm 1 mps 732 mmHg 38%
    16:00 +12°C° 0 mm 1 mps 731 mmHg 39%
    17:00 +10°C° 0 mm 1 mps 731 mmHg 48%
    18:00 +8°C° 0 mm 1 mps 731 mmHg 57%
    19:00 +5°C° 0 mm 1 mps 731 mmHg 65%
    20:00 +5°C° 0 mm 1 mps 731 mmHg 67%
    21:00 +4°C° 0 mm 1 mps 732 mmHg 68%
    22:00 +3°C° 0 mm 2 mps 732 mmHg 70%
    23:00 +2°C° 0 mm 2 mps 732 mmHg 71%

    Pasado mañana, 3 Abril, Viernes

    Tiempo Temperatura Precipitaciones Viento Presión Humedad
    00:00 +2°C° 0 mm 2 mps 732 mmHg 72%
    01:00 +2°C° 0 mm 2 mps 732 mmHg 73%
    02:00 +2°C° 0 mm 2 mps 732 mmHg 74%
    03:00 +2°C° 0 mm 2 mps 732 mmHg 75%
    04:00 +2°C° 0 mm 2 mps 732 mmHg 77%
    05:00 +2°C° 0 mm 2 mps 732 mmHg 75%
    06:00 +3°C° 0 mm 2 mps 733 mmHg 73%
    07:00 +3°C° 0 mm 3 mps 733 mmHg 71%
    08:00 +5°C° 0 mm 3 mps 733 mmHg 67%
    09:00 +6°C° 0 mm 4 mps 733 mmHg 62%
    10:00 +8°C° 0 mm 5 mps 733 mmHg 58%
    11:00 +8°C° 0 mm 5 mps 733 mmHg 57%
    12:00 +9°C° 0 mm 5 mps 734 mmHg 55%
    13:00 +10°C° 0 mm 5 mps 734 mmHg 54%
    14:00 +10°C° 0 mm 5 mps 734 mmHg 54%
    15:00 +10°C° 0 mm 5 mps 734 mmHg 54%
    16:00 +11°C° 0 mm 4 mps 734 mmHg 53%
    17:00 +9°C° 0 mm 3 mps 734 mmHg 61%
    18:00 +7°C° 0 mm 2 mps 735 mmHg 69%
    19:00 +6°C° 0 mm 2 mps 735 mmHg 77%
    20:00 +5°C° 0 mm 2 mps 736 mmHg 79%
    21:00 +6°C° 0 mm 1 mps 736 mmHg 81%
    22:00 +5°C° 0 mm 1 mps 737 mmHg 83%
    23:00 +5°C° 0 mm 1 mps 737 mmHg 84%

    4 Abril, Sábado

    Tiempo Temperatura Precipitaciones Viento Presión Humedad
    00:00 +5°C° 0 mm 1 mps 738 mmHg 85%
    01:00 +4°C° 0 mm 1 mps 738 mmHg 86%
    02:00 +4°C° 0 mm 1 mps 738 mmHg 87%
    03:00 +4°C° 0 mm 1 mps 738 mmHg 88%
    04:00 +4°C° 0 mm 1 mps 738 mmHg 88%
    05:00 +5°C° 0 mm 1 mps 739 mmHg 86%
    06:00 +5°C° 0 mm 1 mps 739 mmHg 84%
    07:00 +6°C° 0 mm 1 mps 740 mmHg 83%
    08:00 +8°C° 0 mm 1 mps 740 mmHg 76%
    09:00 +9°C° 0 mm 1 mps 740 mmHg 69%
    10:00 +10°C° 0 mm 2 mps 740 mmHg 62%
    11:00 +12°C° 0 mm 2 mps 740 mmHg 60%
    12:00 +12°C° 0 mm 2 mps 740 mmHg 58%
    13:00 +13°C° 0 mm 1 mps 741 mmHg 56%
    14:00 +13°C° 0 mm 2 mps 740 mmHg 55%
    15:00 +13°C° 0 mm 2 mps 740 mmHg 55%
    16:00 +13°C° 0 mm 2 mps 740 mmHg 55%
    17:00 +11°C° 0 mm 1 mps 741 mmHg 62%
    18:00 +9°C° 0 mm 1 mps 741 mmHg 70%
    19:00 +7°C° 0 mm 1 mps 741 mmHg 77%
    20:00 +7°C° 0 mm 1 mps 742 mmHg 79%
    21:00 +6°C° 0 mm 1 mps 743 mmHg 80%
    22:00 +5°C° 0 mm 1 mps 743 mmHg 82%
    23:00 +5°C° 0 mm 1 mps 743 mmHg 82%

    5 Abril, Domingo

    Tiempo Temperatura Precipitaciones Viento Presión Humedad
    00:00 +5°C° 0 mm 1 mps 744 mmHg 82%
    01:00 +4°C° 0 mm 1 mps 744 mmHg 83%
    02:00 +4°C° 0 mm 1 mps 744 mmHg 84%
    03:00 +3°C° 0 mm 2 mps 744 mmHg 84%
    04:00 +2°C° 0 mm 2 mps 744 mmHg 85%
    05:00 +3°C° 0 mm 2 mps 744 mmHg 82%
    06:00 +4°C° 0 mm 2 mps 744 mmHg 79%
    07:00 +4°C° 0 mm 2 mps 744 mmHg 76%
    08:00 +7°C° 0 mm 2 mps 744 mmHg 68%
    09:00 +9°C° 0 mm 3 mps 744 mmHg 60%
    10:00 +11°C° 0 mm 3 mps 744 mmHg 52%
    11:00 +12°C° 0 mm 4 mps 744 mmHg 49%
    12:00 +13°C° 0 mm 4 mps 744 mmHg 46%
    13:00 +15°C° 0 mm 5 mps 744 mmHg 43%
    14:00 +14°C° 0 mm 5 mps 743 mmHg 44%
    15:00 +14°C° 0 mm 5 mps 743 mmHg 45%
    16:00 +14°C° 0 mm 5 mps 743 mmHg 47%
    17:00 +12°C° 0 mm 5 mps 743 mmHg 53%
    18:00 +10°C° 0 mm 4 mps 743 mmHg 60%
    19:00 +7°C° 0 mm 4 mps 743 mmHg 66%
    20:00 +7°C° 0 mm 4 mps 744 mmHg 68%
    21:00 +6°C° 0 mm 4 mps 744 mmHg 69%
    22:00 +5°C° 0 mm 3 mps 744 mmHg 71%
    23:00 +5°C° 0 mm 3 mps 744 mmHg 72%

    6 Abril, Lunes

    Tiempo Temperatura Precipitaciones Viento Presión Humedad
    00:00 +4°C° 0 mm 3 mps 744 mmHg 73%
    01:00 +4°C° 0 mm 3 mps 744 mmHg 74%
    02:00 +4°C° 0 mm 3 mps 744 mmHg 76%
    03:00 +3°C° 0 mm 3 mps 744 mmHg 78%
    04:00 +3°C° 0 mm 3 mps 744 mmHg 80%
    05:00 +4°C° 0 mm 3 mps 744 mmHg 78%
    06:00 +4°C° 0 mm 3 mps 744 mmHg 75%
    07:00 +5°C° 0 mm 3 mps 744 mmHg 73%
    08:00 +9°C° 0 mm 3 mps 744 mmHg 65%
    09:00 +11°C° 0 mm 3 mps 744 mmHg 57%
    10:00 +14°C° 0 mm 4 mps 745 mmHg 49%
    11:00 +15°C° 0 mm 4 mps 744 mmHg 47%
    12:00 +16°C° 0 mm 5 mps 744 mmHg 45%
    13:00 +17°C° 0 mm 5 mps 744 mmHg 43%
    14:00 +16°C° 0 mm 5 mps 744 mmHg 45%
    15:00 +16°C° 0 mm 5 mps 744 mmHg 47%
    16:00 +15°C° 0 mm 5 mps 744 mmHg 49%
    17:00 +13°C° 0 mm 4 mps 744 mmHg 55%
    18:00 +11°C° 0 mm 4 mps 744 mmHg 61%
    19:00 +9°C° 0 mm 3 mps 744 mmHg 68%
    20:00 +8°C° 0 mm 3 mps 745 mmHg 70%
    21:00 +7°C° 0 mm 3 mps 745 mmHg 72%
    22:00 +7°C° 0 mm 2 mps 746 mmHg 74%
    23:00 +6°C° 0 mm 2 mps 746 mmHg 74%
    Mostrar más